Regional Weather Roundup
Issued by NWS

Home | Current Version | Previous Version | Graphics & Text | Print | Product List | Glossary On
Versions: 1 2 3 4 5 6 7 8 9 10 11 12 13 14 15 16 17 18 19 20 21 22 23 24 25 26 27 28 29 30 31 32 33 34 35 36 37 38 39 40 41 42 43 44 45 46 47 48 49 50
000
ASUS45 KABQ 241301
RWRNM
NEW MEXICO REGIONAL WEATHER ROUNDUP
NATIONAL WEATHER SERVICE ALBUQUERQUE NM
700 AM MDT THU MAY 24 2018

NOTE: "FAIR" MEANS FEW OR NO CLOUDS BELOW 12,000 FEET AGL WITH NO
       SIGNIFICANT WEATHER OR OBSTRUCTIONS TO VISION.

      THIS PRODUCT IS RELEASED AS TWO VERSIONS.  ONE VERSION NEAR
      THE TOP OF THE HOUR CONTAINING PRELIMINARY DATA FROM ALBUQUERQUE
      AND OTHER STATIONS.  A FINAL VERSION WITH ADDITIONAL DATA IS
      ISSUED ABOUT 10 MINUTES AFTER THE HOUR.

NMZ501-503-504-510>518-241400-
NORTHWEST PLATEAU/NORTHCENTRAL MOUNTAINS

CITY           SKY/WX    TMP DP  RH WIND       PRES   REMARKS
FARMINGTON     FAIR      50  24  36 E9        30.17R
LOS ALAMOS     FAIR      58  31  36 NE3       30.29R
SANTA FE       FAIR      51  47  86 N3        30.24R
TAOS           FAIR      50  37  61 CALM      30.31R
ANGEL FIRE     FOG       41  41  97 CALM      30.37R VSB<1/4

$$
NMZ402-403-502-505>509-241400-
WESTCENTRAL MOUNTAINS/SOUTHWEST MOUNTAINS

CITY           SKY/WX    TMP DP  RH WIND       PRES   REMARKS
GALLUP         FAIR      42  14  32 NE3       30.26R
GRANTS         FAIR      45  30  54 SE3       30.29R
SILVER CITY    FAIR      55  23  28 N8        30.20R

$$
NMZ407-409-411-412-241400-
SOUTHERN DESERTS

CITY           SKY/WX    TMP DP  RH WIND       PRES   REMARKS
DEMING         FAIR      56  23  27 CALM      30.14R
LAS CRUCES     FAIR      61  44  53 W3        30.15R
HOLLOMAN AFB   FAIR      65  45  49 SE5       30.15R
ALAMOGORDO     FAIR      63  45  51 CALM      30.14R
T OR C         FAIR      63  22  20 NW6       30.15R

$$
NMZ519>523-241400-
CENTRAL VALLEYS/CENTRAL HIGHLANDS

CITY           SKY/WX    TMP DP  RH WIND       PRES   REMARKS
ALBUQUERQUE    FAIR      60  22  23 S6        30.20R
DOUBLE EAGLE   MOSUNNY   54  37  54 CALM      30.22R
MORIARTY ARPT  FAIR      48  46  91 CALM      30.26R
CLINES CORNERS FAIR      55  36  48 SW9       30.29R
BELEN          FAIR      58  22  24 CALM      30.19R
SOCORRO        FAIR      60  33  36 CALM      30.18R

$$
NMZ524>526-539-540-241400-
SOUTHCENTRAL MOUNTAINS

CITY           SKY/WX    TMP DP  RH WIND       PRES   REMARKS
RUIDOSO        FAIR      54  46  76 NE3       30.29R

$$
NMZ527>531-241400-
NORTHEAST HIGHLANDS/NORTHEAST PLAINS

CITY           SKY/WX    TMP DP  RH WIND       PRES   REMARKS
LAS VEGAS      FAIR      48  46  93 CALM      30.27R
RATON          FAIR      55  49  80 W3        30.25R
CLAYTON        FAIR      56  51  84 SW14      30.16F

$$
NMZ532>537-241400-
EASTCENTRAL PLAINS

CITY           SKY/WX    TMP DP  RH WIND       PRES   REMARKS
SANTA ROSA     FAIR      54  51  89 CALM      30.19R
TUCUMCARI      FAIR      60  55  83 CALM      30.14S
CANNON AFB     NOT AVBL
CLOVIS AIRPORT   N/A     58  55  90 E3        30.18

$$
NMZ028-029-538-241400-
SOUTHEAST PLAINS

CITY           SKY/WX    TMP DP  RH WIND       PRES   REMARKS
ROSWELL        FAIR      58  53  84 CALM      30.12R
ARTESIA        FAIR      61  57  88 N5        30.14R
CARLSBAD       FAIR      58  53  84 W6        30.11R
HOBBS          SUNNY     61  57  88 N6        30.14R


$$



USA.gov is the U.S. government's official web portal to all federal, state and local government web resources and services.